This is the latest recevied weather packets stored in our database for station/object W4MLN-3. If no packets are shown the sender has not sent any weather packets the latest 10 day(s).
| Time | Temp. | Humidity | Pressure | Rain* | Wind** | Luminosity | Snow |
|---|---|---|---|---|---|---|---|
| 1777765503 | 7.78° C | 54% | 1012.5 hPa | 0 mm | - | - | - |
| 1777765203 | 7.78° C | 54% | 1012.4 hPa | 0 mm | - | - | - |
| 1777764903 | 7.78° C | 54% | 1012.5 hPa | 0 mm | - | - | - |
| 1777764603 | 7.78° C | 54% | 1012.3 hPa | 0 mm | - | - | - |
| 1777764303 | 8.33° C | 54% | 1012.4 hPa | 0 mm | - | - | - |
| 1777764003 | 8.33° C | 52% | 1012.5 hPa | 0 mm | - | - | - |
| 1777763724 | 8.33° C | 52% | 1012.3 hPa | 0 mm | - | - | - |
| 1777763403 | 8.33° C | 52% | 1012.3 hPa | 0 mm | - | - | - |
| 1777763103 | 8.89° C | 51% | 1012.3 hPa | 0 mm | - | - | - |
| 1777762803 | 8.89° C | 50% | 1012.2 hPa | 0 mm | - | - | - |
| 1777762503 | 8.89° C | 49% | 1012.2 hPa | 0 mm | - | - | - |
| 1777762204 | 9.44° C | 49% | 1012.2 hPa | 0 mm | - | - | - |
| 1777761903 | 9.44° C | 50% | 1012.2 hPa | 0 mm | - | - | - |
| 1777761603 | 9.44° C | 50% | 1012.2 hPa | 0 mm | - | - | - |
| 1777761325 | 9.44° C | 50% | 1012.3 hPa | 0 mm | - | - | - |
| 1777761003 | 9.44° C | 50% | 1012.3 hPa | 0 mm | - | - | - |
| 1777760703 | 9.44° C | 48% | 1012.2 hPa | 0 mm | - | - | - |
| 1777760404 | 10° C | 48% | 1012.2 hPa | 0 mm | - | - | - |
| 1777760103 | 10° C | 48% | 1012.1 hPa | 0 mm | - | - | - |
| 1777759803 | 10.56° C | 46% | 1012.1 hPa | 0 mm | - | - | - |
| 1777759503 | 11.11° C | 46% | 1012 hPa | 0 mm | - | - | - |
| 1777759203 | 11.11° C | 47% | 1012 hPa | 0 mm | - | - | - |
| 1777758903 | 10.56° C | 49% | 1011.7 hPa | 0 mm | - | - | - |
| 1777758603 | 10° C | 48% | 1011.8 hPa | 0 mm | - | - | - |
| 1777758303 | 10° C | 47% | 1011.8 hPa | 0 mm | - | - | - |
* Rain latest hour (hover to see other rain measurements)
** Current wind speed in m/s (hover to see current wind gust speed)